Time,TemperatureF,DewpointF,PressureIn,WindDirection,WindDirectionDegrees,WindSpeedMPH,WindSpeedGustMPH,Humidity,HourlyPrecipIn,Conditions,Clouds,dailyrainin,SoftwareType,DateUTC
2013-03-14 00:02:00,31.0,20.0,-100.00,SSE,150,5.0,7.0,65,0.00,,,-99.99,,2013-03-14 05:02:00,
2013-03-14 00:12:00,30.0,20.0,-100.00,SSE,165,6.0,9.0,65,0.00,,,-99.99,,2013-03-14 05:12:00,
2013-03-14 00:22:00,30.0,20.0,-100.00,SSE,165,6.0,9.0,65,0.00,,,-99.99,,2013-03-14 05:22:00,
2013-03-14 00:33:00,30.0,20.0,-100.00,SSE,165,6.0,9.0,65,0.00,,,-99.99,,2013-03-14 05:33:00,
2013-03-14 00:42:00,30.0,20.0,-100.00,SSE,165,6.0,9.0,65,0.00,,,-99.99,,2013-03-14 05:42:00,
2013-03-14 00:52:00,30.0,20.0,-100.00,SSE,155,9.0,10.0,65,0.00,,,-99.99,,2013-03-14 05:52:00,
2013-03-14 01:02:00,30.0,20.0,-100.00,SSE,165,6.0,10.0,65,0.00,,,-99.99,,2013-03-14 06:02:00,
2013-03-14 01:12:00,30.0,20.0,-100.00,SSE,155,7.0,9.0,66,0.00,,,-99.99,,2013-03-14 06:12:00,
2013-03-14 01:22:00,30.0,20.0,-100.00,SSE,155,7.0,9.0,66,0.00,,,-99.99,,2013-03-14 06:22:00,
2013-03-14 01:32:00,30.0,20.0,-100.00,SSE,165,6.0,8.0,67,0.00,,,-99.99,,2013-03-14 06:32:00,
2013-03-14 01:42:00,30.0,20.0,-100.00,SSE,165,6.0,8.0,67,0.00,,,-99.99,,2013-03-14 06:42:00,
2013-03-14 01:52:00,30.0,20.0,-100.00,SSE,160,6.0,9.0,67,0.00,,,-99.99,,2013-03-14 06:52:00,
2013-03-14 02:02:00,30.0,20.0,-100.00,SSE,165,6.0,9.0,67,0.00,,,-99.99,,2013-03-14 07:02:00,
2013-03-14 02:12:00,30.0,20.0,-100.00,SSE,165,6.0,9.0,67,0.00,,,-99.99,,2013-03-14 07:12:00,
2013-03-14 02:22:00,30.0,21.0,-100.00,SSE,165,7.0,12.0,67,0.00,,,-99.99,,2013-03-14 07:22:00,
2013-03-14 02:32:00,30.0,21.0,-100.00,SSE,160,8.0,12.0,67,0.00,,,-99.99,,2013-03-14 07:32:00,
2013-03-14 02:42:00,30.0,21.0,-100.00,South,185,7.0,12.0,67,0.00,,,-99.99,,2013-03-14 07:42:00,
2013-03-14 02:52:00,30.0,21.0,-100.00,South,170,7.0,12.0,68,0.00,,,-99.99,,2013-03-14 07:52:00,
2013-03-14 03:02:00,30.0,21.0,-100.00,South,170,7.0,12.0,68,0.00,,,-99.99,,2013-03-14 08:02:00,
2013-03-14 03:12:00,30.0,21.0,-100.00,SSE,165,7.0,12.0,68,0.00,,,-99.99,,2013-03-14 08:12:00,
2013-03-14 03:21:00,31.0,21.0,-100.00,South,175,8.0,15.0,68,0.00,,,-99.99,,2013-03-14 08:21:00,
2013-03-14 03:32:00,31.0,22.0,-100.00,SSE,160,9.0,14.0,68,0.00,,,-99.99,,2013-03-14 08:32:00,
2013-03-14 03:41:00,31.0,22.0,-100.00,South,175,9.0,14.0,68,0.00,,,-99.99,,2013-03-14 08:41:00,
2013-03-14 03:51:00,31.0,22.0,-100.00,SSE,165,9.0,16.0,68,0.00,,,-99.99,,2013-03-14 08:51:00,
2013-03-14 04:01:00,31.0,22.0,-100.00,SSE,165,9.0,16.0,68,0.00,,,-99.99,,2013-03-14 09:01:00,
2013-03-14 04:12:00,31.0,22.0,-100.00,SSE,150,9.0,12.0,68,0.00,,,-99.99,,2013-03-14 09:12:00,
2013-03-14 04:22:00,31.0,22.0,-100.00,SSE,165,7.0,14.0,69,0.00,,,-99.99,,2013-03-14 09:22:00,
2013-03-14 04:32:00,31.0,22.0,-100.00,SSE,165,11.0,19.0,69,0.00,,,-99.99,,2013-03-14 09:32:00,
2013-03-14 04:42:00,31.0,22.0,-100.00,South,170,8.0,14.0,69,0.00,,,-99.99,,2013-03-14 09:42:00,
2013-03-14 04:52:00,31.0,22.0,-100.00,SSE,165,7.0,12.0,69,0.00,,,-99.99,,2013-03-14 09:52:00,
2013-03-14 05:02:00,31.0,22.0,-100.00,SSE,165,7.0,12.0,69,0.00,,,-99.99,,2013-03-14 10:02:00,
2013-03-14 05:12:00,31.0,22.0,-100.00,South,170,9.0,14.0,70,0.00,,,-99.99,,2013-03-14 10:12:00,
2013-03-14 05:22:00,31.0,22.0,-100.00,South,175,8.0,14.0,70,0.00,,,-99.99,,2013-03-14 10:22:00,
2013-03-14 05:32:00,31.0,22.0,-100.00,SSE,160,9.0,17.0,70,0.00,,,-99.99,,2013-03-14 10:32:00,
2013-03-14 05:42:00,31.0,23.0,-100.00,SSE,160,9.0,14.0,70,0.00,,,-99.99,,2013-03-14 10:42:00,
2013-03-14 05:52:00,31.0,23.0,-100.00,South,170,11.0,16.0,70,0.00,,,-99.99,,2013-03-14 10:52:00,
2013-03-14 06:02:00,31.0,23.0,-100.00,South,170,11.0,16.0,70,0.00,,,-99.99,,2013-03-14 11:02:00,
2013-03-14 06:12:00,32.0,23.0,-100.00,SSE,165,10.0,16.0,70,0.00,,,-99.99,,2013-03-14 11:12:00,
2013-03-14 06:22:00,32.0,23.0,-100.00,SSE,160,11.0,17.0,70,0.00,,,-99.99,,2013-03-14 11:22:00,
2013-03-14 06:33:00,32.0,23.0,-100.00,SSE,165,10.0,17.0,70,0.00,,,-99.99,,2013-03-14 11:33:00,
2013-03-14 06:42:00,32.0,23.0,-100.00,SSE,165,10.0,17.0,70,0.00,,,-99.99,,2013-03-14 11:42:00,
2013-03-14 06:52:00,33.0,23.0,-100.00,South,180,12.0,17.0,68,0.00,,,-99.99,,2013-03-14 11:52:00,
2013-03-14 07:02:00,33.0,23.0,-100.00,South,180,12.0,17.0,68,0.00,,,-99.99,,2013-03-14 12:02:00,
2013-03-14 07:12:00,33.0,23.0,-100.00,South,180,9.0,17.0,67,0.17,,,-99.99,,2013-03-14 12:12:00,
2013-03-14 07:22:00,33.0,24.0,-100.00,South,180,11.0,19.0,68,0.16,,,-99.99,,2013-03-14 12:22:00,
2013-03-14 07:33:00,33.0,24.0,-100.00,SSW,200,12.0,19.0,70,0.00,,,-99.99,,2013-03-14 12:33:00,
2013-03-14 07:42:00,33.0,24.0,-100.00,SSW,200,12.0,19.0,70,0.00,,,-99.99,,2013-03-14 12:42:00,
2013-03-14 07:52:00,33.0,24.0,-100.00,South,180,9.0,19.0,68,0.00,,,-99.99,,2013-03-14 12:52:00,
2013-03-14 08:02:00,33.0,24.0,-100.00,South,180,9.0,19.0,68,0.00,,,-99.99,,2013-03-14 13:02:00,
2013-03-14 08:12:00,33.0,24.0,-100.00,South,185,14.0,22.0,66,0.00,,,-99.99,,2013-03-14 13:12:00,
2013-03-14 08:22:00,34.0,23.0,-100.00,South,180,12.0,26.0,64,0.00,,,-99.99,,2013-03-14 13:22:00,
2013-03-14 08:32:00,34.0,23.0,-100.00,South,175,12.0,22.0,63,0.00,,,-99.99,,2013-03-14 13:32:00,
2013-03-14 08:42:00,34.0,23.0,-100.00,South,175,12.0,22.0,63,0.00,,,-99.99,,2013-03-14 13:42:00,
2013-03-14 08:52:00,35.0,23.0,-100.00,South,185,11.0,21.0,61,0.00,,,-99.99,,2013-03-14 13:52:00,
2013-03-14 09:02:00,35.0,23.0,-100.00,South,170,8.0,19.0,60,0.00,,,-99.99,,2013-03-14 14:02:00,
2013-03-14 09:12:00,35.0,23.0,-100.00,South,180,8.0,17.0,59,0.00,,,-99.99,,2013-03-14 14:12:00,
2013-03-14 09:22:00,35.0,23.0,-100.00,SSE,160,6.0,11.0,60,0.00,,,-99.99,,2013-03-14 14:22:00,
2013-03-14 09:32:00,38.0,24.0,-100.00,SSE,165,7.0,12.0,56,0.00,,,-99.99,,2013-03-14 14:32:00,
2013-03-14 09:42:00,38.0,24.0,-100.00,SSE,165,7.0,12.0,56,0.00,,,-99.99,,2013-03-14 14:42:00,
2013-03-14 09:52:00,38.0,24.0,-100.00,South,175,9.0,13.0,55,0.00,,,-99.99,,2013-03-14 14:52:00,
2013-03-14 10:02:00,38.0,23.0,-100.00,SSW,200,9.0,16.0,55,0.00,,,-99.99,,2013-03-14 15:02:00,
2013-03-14 10:12:00,39.0,24.0,-100.00,SSE,165,12.0,17.0,53,0.00,,,-99.99,,2013-03-14 15:12:00,
2013-03-14 10:22:00,39.0,24.0,-100.00,SSE,165,12.0,17.0,53,0.00,,,-99.99,,2013-03-14 15:22:00,
2013-03-14 10:32:00,42.0,24.0,-100.00,South,190,7.0,12.0,49,0.00,,,-99.99,,2013-03-14 15:32:00,
2013-03-14 10:43:00,42.0,24.0,-100.00,South,190,7.0,12.0,49,0.00,,,-99.99,,2013-03-14 15:43:00,
2013-03-14 10:52:00,42.0,24.0,-100.00,SSW,205,7.0,14.0,47,0.00,,,-99.99,,2013-03-14 15:52:00,
2013-03-14 11:03:00,44.0,25.0,-100.00,SSW,195,6.0,14.0,47,0.00,,,-99.99,,2013-03-14 16:03:00,
2013-03-14 11:12:00,44.0,25.0,-100.00,SW,235,9.0,14.0,45,0.00,,,-99.99,,2013-03-14 16:12:00,
2013-03-14 11:22:00,45.0,24.0,-100.00,WSW,240,9.0,12.0,43,0.00,,,-99.99,,2013-03-14 16:22:00,
2013-03-14 11:32:00,46.0,24.0,-100.00,SW,225,9.0,15.0,41,0.00,,,-99.99,,2013-03-14 16:32:00,
2013-03-14 11:42:00,46.0,24.0,-100.00,WSW,250,11.0,16.0,41,0.00,,,-99.99,,2013-03-14 16:42:00,
2013-03-14 11:52:00,48.0,25.0,-100.00,SW,225,7.0,14.0,40,0.00,,,-99.99,,2013-03-14 16:52:00,
2013-03-14 12:02:00,49.0,26.0,-100.00,SSW,205,7.0,12.0,40,0.00,,,-99.99,,2013-03-14 17:02:00,
2013-03-14 12:12:00,50.0,26.0,-100.00,WNW,295,6.0,9.0,38,0.00,,,-99.99,,2013-03-14 17:12:00,
2013-03-14 12:23:00,51.0,26.0,-100.00,WSW,245,6.0,12.0,37,0.00,,,-99.99,,2013-03-14 17:23:00,
2013-03-14 12:32:00,51.0,27.0,-100.00,West,265,5.0,14.0,37,0.00,,,-99.99,,2013-03-14 17:32:00,
2013-03-14 12:42:00,51.0,26.0,-100.00,West,260,10.0,12.0,37,0.00,,,-99.99,,2013-03-14 17:42:00,
2013-03-14 12:52:00,53.0,27.0,-100.00,West,280,7.0,12.0,37,0.00,,,-99.99,,2013-03-14 17:52:00,
2013-03-14 13:02:00,53.0,28.0,-100.00,West,270,10.0,13.0,36,0.00,,,-99.99,,2013-03-14 18:02:00,
2013-03-14 13:12:00,54.0,28.0,-100.00,WSW,245,7.0,13.0,36,0.00,,,-99.99,,2013-03-14 18:12:00,
2013-03-14 13:22:00,54.0,28.0,-100.00,NW,310,9.0,12.0,35,0.00,,,-99.99,,2013-03-14 18:22:00,
2013-03-14 13:32:00,55.0,29.0,-100.00,West,260,7.0,14.0,35,0.00,,,-99.99,,2013-03-14 18:32:00,
2013-03-14 13:42:00,56.0,29.0,-100.00,WSW,245,7.0,14.0,35,0.00,,,-99.99,,2013-03-14 18:42:00,
2013-03-14 13:52:00,55.0,29.0,-100.00,NW,320,9.0,15.0,36,0.00,,,-99.99,,2013-03-14 18:52:00,
2013-03-14 14:02:00,55.0,29.0,-100.00,West,280,10.0,15.0,36,0.00,,,-99.99,,2013-03-14 19:02:00,
2013-03-14 14:12:00,56.0,29.0,-100.00,NW,325,9.0,15.0,35,0.00,,,-99.99,,2013-03-14 19:12:00,
2013-03-14 14:22:00,57.0,30.0,-100.00,WNW,285,7.0,12.0,35,0.00,,,-99.99,,2013-03-14 19:22:00,
2013-03-14 14:32:00,56.0,30.0,-100.00,WNW,300,5.0,17.0,36,0.00,,,-99.99,,2013-03-14 19:32:00,
2013-03-14 14:42:00,57.0,31.0,-100.00,West,275,11.0,16.0,36,0.00,,,-99.99,,2013-03-14 19:42:00,
2013-03-14 14:52:00,57.0,31.0,-100.00,NW,305,8.0,15.0,36,0.00,,,-99.99,,2013-03-14 19:52:00,
2013-03-14 15:02:00,58.0,31.0,-100.00,WNW,295,9.0,15.0,36,0.00,,,-99.99,,2013-03-14 20:02:00,
2013-03-14 15:11:00,58.0,31.0,-100.00,NW,315,11.0,14.0,36,0.00,,,-99.99,,2013-03-14 20:11:00,
2013-03-14 15:22:00,58.0,32.0,-100.00,NW,310,10.0,13.0,37,0.00,,,-99.99,,2013-03-14 20:22:00,
2013-03-14 15:32:00,59.0,33.0,-100.00,NW,325,9.0,14.0,36,0.00,,,-99.99,,2013-03-14 20:32:00,
2013-03-14 15:42:00,58.0,32.0,-100.00,NW,320,10.0,14.0,37,0.00,,,-99.99,,2013-03-14 20:42:00,
2013-03-14 15:52:00,59.0,33.0,-100.00,NW,320,9.0,13.0,37,0.00,,,-99.99,,2013-03-14 20:52:00,
2013-03-14 16:02:00,60.0,34.0,-100.00,NNW,340,9.0,14.0,37,0.00,,,-99.99,,2013-03-14 21:02:00,
2013-03-14 16:12:00,60.0,33.0,-100.00,NNW,345,7.0,14.0,37,0.00,,,-99.99,,2013-03-14 21:12:00,
2013-03-14 16:22:00,59.0,33.0,-100.00,NNW,330,9.0,14.0,37,0.00,,,-99.99,,2013-03-14 21:22:00,
2013-03-14 16:32:00,60.0,34.0,-100.00,NNW,345,9.0,12.0,36,0.00,,,-99.99,,2013-03-14 21:32:00,
2013-03-14 16:43:00,60.0,34.0,-100.00,NNW,345,9.0,12.0,36,0.00,,,-99.99,,2013-03-14 21:43:00,
2013-03-14 16:52:00,60.0,34.0,-100.00,North,0,6.0,11.0,37,0.00,,,-99.99,,2013-03-14 21:52:00,
2013-03-14 17:03:00,60.0,34.0,-100.00,North,0,6.0,11.0,37,0.00,,,-99.99,,2013-03-14 22:03:00,
2013-03-14 17:12:00,60.0,34.0,-100.00,NNW,340,6.0,11.0,37,0.00,,,-99.99,,2013-03-14 22:12:00,
2013-03-14 17:23:00,60.0,34.0,-100.00,NNW,345,9.0,12.0,37,0.00,,,-99.99,,2013-03-14 22:23:00,
2013-03-14 17:33:00,59.0,33.0,-100.00,NNW,340,5.0,13.0,38,0.00,,,-99.99,,2013-03-14 22:33:00,
2013-03-14 17:42:00,59.0,33.0,-100.00,NNW,340,5.0,13.0,38,0.00,,,-99.99,,2013-03-14 22:42:00,
2013-03-14 17:52:00,58.0,33.0,-100.00,NW,320,6.0,9.0,38,0.00,,,-99.99,,2013-03-14 22:52:00,
2013-03-14 18:02:00,58.0,33.0,-100.00,NW,320,6.0,9.0,38,0.00,,,-99.99,,2013-03-14 23:02:00,
2013-03-14 18:12:00,58.0,33.0,-100.00,NNW,335,6.0,10.0,39,0.00,,,-99.99,,2013-03-14 23:12:00,
2013-03-14 18:22:00,57.0,32.0,-100.00,NNW,330,6.0,11.0,39,0.00,,,-99.99,,2013-03-14 23:22:00,
2013-03-14 18:33:00,56.0,33.0,-100.00,NW,315,7.0,9.0,40,0.00,,,-99.99,,2013-03-14 23:33:00,
2013-03-14 18:42:00,56.0,33.0,-100.00,NW,315,7.0,9.0,40,0.00,,,-99.99,,2013-03-14 23:42:00,
2013-03-14 18:53:00,55.0,33.0,-100.00,NNW,335,7.0,11.0,43,0.00,,,-99.99,,2013-03-14 23:53:00,
2013-03-14 19:02:00,55.0,33.0,-100.00,NNW,335,7.0,11.0,43,0.00,,,-99.99,,2013-03-15 00:02:00,
2013-03-14 19:12:00,54.0,33.0,-100.00,North,5,5.0,9.0,44,0.00,,,-99.99,,2013-03-15 00:12:00,
2013-03-14 19:22:00,53.0,33.0,-100.00,North,0,6.0,9.0,46,0.00,,,-99.99,,2013-03-15 00:22:00,
2013-03-14 19:32:00,50.0,33.0,-100.00,North,350,6.0,9.0,49,0.00,,,-99.99,,2013-03-15 00:32:00,
2013-03-14 19:42:00,50.0,33.0,-100.00,North,350,6.0,9.0,49,0.00,,,-99.99,,2013-03-15 00:42:00,
2013-03-14 19:52:00,48.0,33.0,-100.00,NNE,25,6.0,9.0,54,0.00,,,-99.99,,2013-03-15 00:52:00,
2013-03-14 20:02:00,48.0,33.0,-100.00,NNE,25,6.0,9.0,54,0.00,,,-99.99,,2013-03-15 01:02:00,
2013-03-14 20:11:00,47.0,33.0,-100.00,NNE,30,7.0,9.0,56,0.00,,,-99.99,,2013-03-15 01:11:00,
2013-03-14 20:22:00,47.0,33.0,-100.00,NNE,30,6.0,9.0,57,0.00,,,-99.99,,2013-03-15 01:22:00,
2013-03-14 20:32:00,45.0,33.0,-100.00,North,355,4.0,7.0,61,0.00,,,-99.99,,2013-03-15 01:32:00,
2013-03-14 20:42:00,45.0,33.0,-100.00,North,355,4.0,7.0,61,0.00,,,-99.99,,2013-03-15 01:42:00,
2013-03-14 20:52:00,44.0,33.0,-100.00,NNW,330,3.0,4.0,65,0.00,,,-99.99,,2013-03-15 01:52:00,
2013-03-14 21:02:00,44.0,33.0,-100.00,NNW,330,3.0,4.0,65,0.00,,,-99.99,,2013-03-15 02:02:00,
2013-03-14 21:12:00,44.0,34.0,-100.00,NW,305,6.0,7.0,66,0.00,,,-99.99,,2013-03-15 02:12:00,
2013-03-14 21:22:00,44.0,34.0,-100.00,WNW,300,6.0,7.0,67,0.00,,,-99.99,,2013-03-15 02:22:00,
2013-03-14 21:32:00,42.0,34.0,-100.00,NNW,330,4.0,6.0,71,0.00,,,-99.99,,2013-03-15 02:32:00,
2013-03-14 21:42:00,42.0,34.0,-100.00,NNW,330,4.0,6.0,71,0.00,,,-99.99,,2013-03-15 02:42:00,
2013-03-14 21:52:00,41.0,34.0,-100.00,North,10,3.0,5.0,74,0.00,,,-99.99,,2013-03-15 02:52:00,
2013-03-14 22:02:00,41.0,34.0,-100.00,North,10,3.0,5.0,74,0.00,,,-99.99,,2013-03-15 03:02:00,
2013-03-14 22:12:00,41.0,34.0,-100.00,North,10,4.0,4.0,75,0.00,,,-99.99,,2013-03-15 03:12:00,
2013-03-14 22:22:00,40.0,34.0,-100.00,North,10,4.0,4.0,76,0.00,,,-99.99,,2013-03-15 03:22:00,
2013-03-14 22:33:00,40.0,33.0,-100.00,North,10,3.0,4.0,77,0.00,,,-99.99,,2013-03-15 03:33:00,
2013-03-14 22:42:00,40.0,33.0,-100.00,North,10,3.0,4.0,77,0.00,,,-99.99,,2013-03-15 03:42:00,
2013-03-14 22:52:00,39.0,33.0,-100.00,North,5,2.0,4.0,79,0.00,,,-99.99,,2013-03-15 03:52:00,
2013-03-14 23:03:00,39.0,33.0,-100.00,North,5,2.0,4.0,79,0.00,,,-99.99,,2013-03-15 04:03:00,
2013-03-14 23:12:00,39.0,33.0,-100.00,NNE,25,4.0,5.0,80,0.00,,,-99.99,,2013-03-15 04:12:00,
2013-03-14 23:22:00,39.0,34.0,-100.00,NNE,25,4.0,6.0,81,0.00,,,-99.99,,2013-03-15 04:22:00,
2013-03-14 23:32:00,39.0,34.0,-100.00,NE,40,6.0,8.0,81,0.00,,,-99.99,,2013-03-15 04:32:00,
2013-03-14 23:42:00,39.0,34.0,-100.00,NE,40,6.0,8.0,81,0.00,,,-99.99,,2013-03-15 04:42:00,
2013-03-14 23:52:00,39.0,33.0,-100.00,ENE,60,7.0,11.0,81,0.00,,,-99.99,,2013-03-15 04:52:00,